Vertical_Velocity
3 1 -1 -0 -1 -0 -0 0 -2 -3 -3 -2 -1 -2 -2 -1 -1 -1 -1 -1 2 5 3 -0 0 -1 -1 0 0 0 1 1 -0 -0 -2 -2 -1 0 -1 -2 -2 -1 -0
-1 2 0 -1 -2 -1 -1 1 -1 -1 2 4 4 3 1 2 2 3 1 4 0 -1 -2 -1 -2 -0 -0 -0 -1 -1 -2 -3 -2 -1 -0 0 -1 -2 -1 -2 -0 -0 -2
-0 2 2 0 -1 -1 -1 0 -1 -1 1 -0 -1 -0 -1 -2 -1 -0 0 -1 0 -1 -1 -0 -1 -1 -1 -1 -2 -1 0 -0 -0 -0 -1 -2 -2 -1 -1 2 1 0 -0
-1 0 0 1 1 -1 -2 0 -1 -1 -0 -0 0 -1 -2 -1 0 -3 -3 -2 -1 -1 -1 -0 0 -0 -1 -2 -1 -1 -1 -0 -1 -0 1 2 -1 -2 2 -0 -0 0 -0
-1 1 1 2 0 -1 -0 -0 -2 -1 -0 -0 -1 -1 -0 -1 -0 -1 -1 -2 -1 -1 -0 0 -0 -1 -1 -1 -0 -0 0 0 -0 -1 -1 2 2 1 0 4 3 -0 -1
0 -2 -0 0 2 0 -0 0 -1 -2 -1 -1 -1 -0 -0 0 0 -1 -1 -1 -0 -0 -0 -1 -1 -1 -1 -1 -1 -1 0 1 1 1 1 -1 2 0 7 2 -2 5 2
-0 -2 -1 1 1 1 0 1 -1 -1 -0 -0 -1 -0 -1 -0 -1 -0 -0 -2 -1 -1 -0 1 1 0 -1 -0 -1 -1 -1 0 1 5 -2 -3 1 4 2 3 -2 -1 2
-6 0 -0 -0 0 1 0 0 -0 -0 0 -0 -0 -0 -1 -1 -1 -0 -0 0 -1 -1 -1 0 0 1 -0 -0 -0 -0 0 -0 6 -1 -2 9 -4 1 -1 -2 -2 -1 -1
-2 1 0 0 -0 0 1 -0 1 1 0 -1 -1 0 -1 -1 -1 -0 1 -0 0 -0 1 1 0 1 1 1 -0 0 2 4 -1 -2 1 -0 1 -0 -2 -1 -1 -1 -1
-3 1 1 -0 -0 0 0 0 0 1 -0 -0 -1 -1 -1 -0 0 -2 0 -0 0 -0 -1 -1 -0 -0 1 -0 -0 1 2 -2 -2 1 1 0 -2 2 -1 -0 0 -1 -0
1 -0 2 -1 -1 0 -0 -1 -0 1 -0 -0 -1 -1 0 -1 -0 -1 -0 1 0 -0 -1 -1 0 -0 -1 0 -1 1 -0 -1 -2 -1 -0 0 1 -1 -2 -1 -2 -1 -0
-1 -0 1 -1 2 -1 0 -0 -1 0 0 -1 -1 -1 -1 1 1 -1 -1 0 0 -0 -2 -2 -2 -2 -0 -1 1 -1 -2 -1 -1 -1 -0 -1 -3 -1 -0 2 0 0 2
1 -1 -1 1 -0 -0 0 -1 -2 -1 -2 -0 -0 -2 -1 -1 -0 1 -0 0 0 -0 -2 -3 -2 -3 -1 -1 -1 -1 -1 -2 -2 -2 -0 0 -3 5 3 0 1 2 -3
2 2 -1 2 0 -1 -1 -1 -1 -1 -2 -1 1 -0 -1 -1 -1 -1 -2 -1 -1 -0 -0 -2 0 -1 -3 -1 -1 0 -1 -1 -2 -1 -0 1 1 -2 0 -3 -3 -0 1
-0 1 -1 3 2 -1 -0 -1 -1 -1 -0 -1 -0 1 -2 -1 -1 -1 -2 -1 -1 -2 -0 -1 -0 -3 -1 1 -0 -1 -1 -1 -2 -1 -1 -2 -1 1 1 2 2 2 0
2 2 -0 2 2 0 -0 -3 0 -2 -0 1 -1 3 -3 -1 -1 -2 -1 -0 -1 -2 -1 0 -1 -1 1 1 2 2 3 1 -2 -1 -1 -1 -1 -1 -1 -1 -1 -1 -2
2 0 0 2 2 -0 -2 -3 1 -1 -0 -1 -1 3 -1 -4 -1 -3 -1 1 -0 -2 -1 -2 -2 0 -1 -1 1 -1 1 -1 -3 1 0 0 -2 -2 -1 -0 1 -2 -1
1 -0 1 1 3 1 -1 -5 3 -2 1 -4 1 0 0 -4 -0 -2 -2 0 -0 -1 -1 -1 -2 1 -0 -1 1 -1 -3 -3 -1 -0 -0 -0 0 -1 -3 -2 -3 -2 -2
1 -1 1 -1 2 0 -2 -2 1 -1 -1 -1 -1 1 -2 -0 -1 -2 -1 -0 0 -1 -1 1 -0 -1 0 -1 0 -1 -1 -2 -1 0 1 -1 -3 -3 -2 -2 -1 -0 -0
2 2 2 -0 1 0 2 -4 1 0 -2 -0 -2 4 -4 0 -1 -1 -2 1 1 -1 -2 -0 0 0 -1 -2 -2 -2 -1 -2 -1 -2 -1 0 1 0 0 -1 -1 -0 0
3 1 2 -2 -0 -1 -0 1 -3 1 -0 -2 -1 4 -4 -2 -1 3 -1 0 1 -1 -1 -0 -0 1 -1 -2 -2 -1 -1 -1 -2 -1 -1 -1 -0 1 1 0 -1 -0 -0
-1 0 1 1 3 -2 0 -5 5 -4 2 -3 -1 2 -3 -1 0 1 0 -0 0 -0 -1 -1 1 -0 -1 -1 -1 -2 -2 -2 -2 -1 -1 -0 -0 0 -0 0 1 -0 -1
-1 -1 -1 0 0 4 -6 0 -2 1 0 -1 -2 1 -4 1 -2 0 1 0 -1 -1 -1 -0 -1 0 -0 -2 -2 -2 -1 -1 -2 -1 -0 1 0 -0 0 -1 0 0 0
2 1 1 -0 2 1 -0 -3 1 2 -1 -1 -1 3 -3 -0 -1 -1 1 0 -2 -1 -2 -1 -0 -1 0 -2 -2 -1 1 0 0 -4 -3 -2 -1 -1 -0 -1 -3 -0 -0
4 0 -2 2 1 -0 1 -2 2 0 -0 -2 2 -3 -5 -0 -2 -0 2 -1 0 -0 -2 -1 -1 0 1 -1 -1 -1 1 0 1 1 -8 -4 4 4 -1 -0 0 0 -0
5 2 -1 1 1 0 -1 1 1 0 1 0 -1 -4 0 -0 -2 0 1 -0 1 -1 -1 -0 0 3 1 -0 -0 1 2 2 2 3 -0 -3 -6 -6 -2 3 -4 -2 -1
Height
1541 1542 1545 1547 1548 1549 1550 1551 1552 1553 1554 1554 1554 1555 1555 1555 1555 1555 1555 1554 1554 1554 1553 1553 1552 1552 1552 1552 1551 1551 1551 1550 1550 1550 1549 1549 1549 1549 1549 1548 1547 1547 1546
1538 1541 1544 1545 1547 1549 1550 1551 1552 1553 1554 1555 1555 1555 1555 1555 1555 1555 1555 1555 1554 1554 1553 1553 1552 1552 1552 1551 1551 1551 1551 1551 1551 1550 1550 1549 1549 1549 1549 1549 1548 1547 1546
1538 1540 1543 1545 1546 1548 1550 1551 1551 1553 1554 1554 1554 1554 1555 1555 1555 1555 1554 1554 1554 1553 1553 1553 1552 1552 1552 1551 1551 1551 1551 1550 1550 1550 1550 1549 1548 1548 1548 1548 1547 1547 1546
1537 1540 1542 1544 1546 1547 1548 1550 1551 1552 1553 1553 1553 1553 1553 1554 1554 1553 1553 1553 1553 1553 1552 1552 1552 1551 1551 1551 1550 1550 1550 1550 1549 1549 1549 1549 1547 1548 1548 1547 1547 1546 1545
1537 1540 1542 1544 1545 1546 1548 1549 1550 1551 1552 1552 1552 1552 1552 1552 1552 1552 1552 1552 1552 1552 1551 1551 1551 1550 1550 1549 1549 1549 1549 1549 1548 1548 1548 1548 1547 1547 1547 1546 1545 1545 1544
1536 1539 1541 1543 1545 1546 1548 1549 1549 1550 1551 1551 1551 1551 1551 1551 1550 1550 1550 1550 1550 1550 1550 1549 1549 1549 1548 1548 1547 1547 1547 1547 1548 1547 1547 1546 1547 1546 1546 1544 1544 1543 1543
1535 1537 1540 1543 1545 1546 1547 1548 1549 1549 1550 1550 1550 1550 1549 1549 1549 1548 1548 1548 1548 1548 1547 1547 1547 1546 1546 1546 1546 1546 1546 1546 1546 1546 1544 1545 1546 1545 1543 1543 1542 1541 1540
1535 1537 1539 1542 1544 1546 1547 1548 1548 1548 1548 1549 1549 1548 1548 1547 1547 1547 1547 1546 1546 1546 1546 1545 1545 1545 1544 1544 1544 1544 1544 1544 1544 1543 1544 1544 1544 1543 1542 1541 1540 1540 1539
1534 1537 1539 1541 1543 1545 1546 1547 1547 1547 1547 1548 1548 1547 1547 1546 1546 1545 1545 1544 1544 1544 1544 1544 1544 1544 1544 1543 1543 1544 1544 1544 1541 1542 1542 1543 1543 1542 1540 1539 1539 1538 1538
1533 1536 1538 1540 1542 1544 1545 1546 1546 1546 1546 1547 1547 1546 1545 1545 1545 1544 1544 1543 1543 1543 1543 1543 1543 1543 1543 1543 1542 1542 1543 1541 1542 1542 1542 1542 1542 1541 1540 1539 1538 1537 1536
1531 1534 1536 1538 1540 1542 1543 1544 1545 1545 1545 1545 1545 1545 1544 1543 1543 1543 1542 1542 1542 1542 1542 1542 1542 1542 1542 1542 1541 1541 1541 1540 1540 1541 1541 1541 1540 1539 1538 1538 1537 1536 1535
1528 1532 1534 1536 1539 1540 1542 1543 1544 1544 1544 1544 1544 1543 1543 1543 1542 1542 1542 1541 1541 1541 1541 1541 1541 1541 1541 1541 1541 1540 1539 1539 1539 1539 1540 1540 1539 1538 1537 1537 1537 1536 1535
1527 1530 1533 1535 1537 1539 1540 1541 1542 1542 1543 1543 1543 1542 1542 1542 1542 1541 1541 1541 1541 1540 1540 1540 1540 1540 1540 1540 1539 1538 1538 1537 1537 1538 1538 1538 1539 1538 1537 1537 1536 1535 1535
1525 1528 1531 1533 1535 1537 1539 1540 1541 1541 1542 1542 1542 1541 1541 1541 1541 1540 1540 1540 1540 1540 1540 1540 1540 1539 1538 1538 1538 1537 1537 1536 1536 1536 1536 1536 1537 1537 1537 1536 1536 1535 1535
1524 1526 1529 1532 1533 1535 1537 1539 1539 1540 1541 1541 1541 1541 1541 1540 1540 1540 1540 1540 1540 1540 1540 1539 1539 1538 1538 1537 1538 1537 1536 1535 1534 1534 1534 1535 1536 1536 1535 1535 1534 1534 1534
1523 1525 1528 1531 1532 1534 1536 1537 1538 1539 1540 1540 1540 1540 1540 1540 1540 1540 1540 1540 1539 1539 1539 1539 1538 1537 1537 1537 1537 1536 1535 1535 1533 1532 1533 1533 1534 1535 1534 1534 1533 1533 1533
1522 1524 1526 1530 1531 1533 1535 1536 1537 1538 1539 1539 1540 1539 1539 1539 1540 1540 1540 1540 1539 1539 1538 1539 1537 1537 1536 1536 1535 1534 1534 1534 1533 1534 1533 1533 1533 1534 1534 1533 1532 1532 1532
1520 1522 1525 1529 1530 1531 1533 1536 1536 1537 1538 1538 1539 1539 1539 1539 1539 1539 1540 1539 1539 1538 1538 1538 1537 1536 1535 1534 1534 1534 1533 1533 1534 1534 1534 1534 1533 1533 1533 1532 1532 1531 1530
1518 1521 1524 1527 1529 1530 1532 1534 1536 1537 1537 1537 1537 1538 1538 1538 1538 1539 1539 1539 1538 1538 1537 1537 1536 1535 1534 1534 1533 1533 1533 1533 1533 1533 1533 1532 1532 1531 1531 1531 1530 1529 1528
1516 1520 1523 1525 1527 1529 1531 1533 1534 1535 1536 1536 1537 1537 1537 1538 1538 1538 1538 1538 1537 1537 1536 1536 1535 1535 1534 1533 1533 1533 1532 1532 1532 1532 1532 1531 1531 1530 1529 1528 1527 1526 1525
1514 1517 1520 1523 1526 1527 1529 1531 1533 1533 1534 1535 1536 1536 1536 1537 1537 1537 1537 1537 1536 1536 1535 1535 1535 1534 1533 1532 1532 1532 1530 1530 1530 1530 1530 1529 1529 1528 1527 1525 1524 1523 1522
1510 1515 1518 1521 1524 1526 1527 1530 1531 1532 1532 1533 1535 1535 1535 1536 1536 1536 1536 1536 1536 1535 1535 1534 1534 1533 1532 1532 1531 1530 1529 1529 1528 1528 1528 1527 1527 1526 1525 1524 1522 1521 1519
1507 1511 1516 1519 1522 1524 1526 1528 1529 1531 1530 1531 1533 1534 1534 1535 1535 1535 1535 1534 1534 1534 1534 1533 1532 1532 1531 1531 1531 1531 1529 1529 1526 1525 1525 1525 1524 1523 1522 1521 1520 1519 1517
1505 1509 1514 1517 1519 1522 1524 1526 1528 1529 1529 1530 1532 1532 1533 1534 1533 1534 1533 1533 1533 1533 1532 1532 1531 1531 1530 1529 1529 1529 1529 1528 1526 1523 1523 1522 1521 1520 1519 1517 1516 1514 1513
1503 1506 1511 1515 1517 1520 1523 1525 1526 1527 1528 1529 1530 1530 1531 1531 1532 1532 1531 1531 1531 1530 1530 1530 1529 1529 1528 1528 1527 1527 1526 1525 1524 1522 1517 1518 1517 1517 1515 1513 1512 1510 1509
1501 1504 1508 1512 1515 1518 1521 1523 1524 1525 1526 1527 1528 1530 1530 1530 1530 1530 1529 1529 1528 1528 1528 1528 1527 1527 1526 1525 1525 1524 1523 1522 1521 1519 1515 1512 1510 1508 1508 1507 1506 1505 1503